Theta_e
321 322 323 324 324 325 325 325 326 326 326 326 325 326 326 326 324 315 310 315 318 328 323 314 313 313 316 313 313 312 303 301 302 301 303 305 304 305 306 306 305 306 306 305 307
320 320 322 323 323 324 324 324 324 325 326 325 324 325 326 325 317 311 321 324 326 327 314 311 310 312 311 311 311 308 304 304 306 306 304 305 305 306 302 303 304 305 306 303 304
319 319 319 321 322 323 324 324 324 324 325 325 324 325 325 323 311 311 325 327 326 323 314 312 312 311 309 310 309 307 303 306 305 306 305 305 304 306 303 302 306 306 307 303 302
318 318 318 318 320 322 323 323 324 324 324 324 324 325 324 318 301 312 325 323 323 318 312 310 310 307 307 306 309 302 306 305 305 305 303 303 306 303 304 306 308 311 311 306 302
317 317 317 317 318 320 321 322 323 324 323 324 324 324 319 309 309 314 318 318 315 312 310 309 309 309 305 307 306 303 306 305 306 304 304 304 302 303 305 308 310 307 305 306 303
317 317 316 316 317 319 320 321 322 323 323 323 323 323 313 303 314 315 311 310 311 310 309 310 309 310 306 305 304 305 304 304 305 304 304 301 303 302 306 309 308 307 304 305 304
318 317 316 316 318 319 319 320 322 322 322 322 323 319 310 307 315 313 311 310 309 310 308 310 311 308 308 305 306 303 300 304 304 304 302 302 299 300 306 305 305 306 305 305 305
317 316 315 315 317 318 318 320 321 321 322 322 323 316 306 313 317 310 311 308 310 310 310 310 310 309 306 305 303 300 301 297 304 303 302 301 297 304 308 305 303 305 305 304 304
316 316 316 316 316 317 318 319 320 320 321 322 317 313 304 312 309 313 311 307 308 309 309 308 310 307 304 301 300 301 296 298 300 302 300 299 298 304 306 303 303 305 306 306 304
316 315 316 316 316 316 317 319 319 317 317 314 312 307 308 305 310 310 309 309 306 307 306 306 306 302 302 300 292 296 297 298 297 301 299 298 297 302 305 305 303 304 305 305 306
316 316 316 316 316 317 316 313 308 306 308 306 307 307 304 310 311 308 307 306 306 305 299 304 299 296 300 302 301 299 297 296 298 301 298 298 298 300 304 304 303 304 304 305 305
316 316 316 316 316 317 314 306 308 305 298 306 305 305 307 311 305 307 307 302 301 298 301 299 295 301 302 301 300 299 296 295 299 301 296 297 296 300 302 302 303 303 303 304 305
316 316 316 316 316 314 309 307 312 311 301 302 305 303 304 306 302 304 304 303 300 298 298 296 299 299 299 298 296 296 294 295 295 298 295 294 292 296 300 301 302 303 303 304 304
317 316 316 315 311 313 307 311 312 310 293 296 297 302 304 305 298 303 305 303 300 296 298 297 301 298 297 295 297 292 299 298 296 294 290 294 287 296 298 299 300 301 303 304 305
316 316 316 314 310 309 307 311 311 305 285 296 296 305 304 299 299 298 301 300 297 296 297 295 297 295 294 295 298 295 294 294 295 293 292 292 289 293 296 294 296 299 302 304 306
316 316 315 312 313 312 311 309 307 291 284 292 298 296 298 298 296 297 298 301 300 297 297 296 297 297 297 294 295 295 293 293 292 291 285 291 290 291 294 294 297 298 300 303 302
316 315 313 314 309 312 311 305 290 284 294 293 294 296 296 296 296 295 293 292 292 289 291 295 295 297 295 293 293 293 292 287 287 286 285 294 290 292 297 298 298 298 300 302 301
316 315 313 314 316 314 308 296 283 291 293 296 295 295 293 296 295 294 294 292 295 294 292 291 289 294 294 295 295 291 293 289 283 284 287 291 286 292 299 300 300 300 301 301 299
317 314 311 313 314 312 299 287 288 293 296 294 294 291 292 294 295 295 294 294 297 295 290 290 290 291 292 292 296 291 287 294 290 288 285 288 293 298 298 297 298 298 297 298 299
313 310 308 314 310 305 292 287 293 298 295 295 289 293 290 293 291 292 293 297 296 297 298 295 288 293 287 290 290 291 292 287 288 282 281 287 290 291 296 295 296 296 296 299 301
311 303 311 313 308 299 285 287 294 298 296 292 291 292 293 292 294 292 292 297 298 297 297 296 292 290 288 287 289 285 286 287 287 289 284 282 287 295 295 297 297 297 297 299 302
308 296 310 310 295 293 287 291 296 296 295 293 293 291 291 292 291 291 291 295 299 297 291 294 292 287 290 294 289 291 291 290 285 284 286 285 285 295 298 298 299 297 298 301 301
303 303 307 308 291 286 291 292 294 295 295 291 290 292 293 289 286 291 292 297 296 295 292 292 287 284 287 288 286 286 289 289 291 289 285 283 285 296 297 298 296 296 298 299 299
302 294 295 299 300 295 290 291 291 298 296 295 291 292 289 287 291 287 290 296 297 295 296 295 289 286 283 287 290 287 288 289 288 284 284 285 288 292 295 296 298 298 299 299 300
300 297 296 288 291 294 294 293 291 291 297 297 292 291 290 288 290 287 291 292 294 293 292 292 285 287 288 290 290 288 288 288 285 287 284 287 288 292 295 296 298 298 298 297 297
293 295 295 294 295 292 293 291 291 294 295 293 292 293 293 289 291 291 292 291 290 289 289 291 283 286 284 288 288 285 288 289 288 289 288 288 287 294 296 297 296 296 297 296 297
297 296 288 288 290 290 290 292 292 296 297 298 297 293 292 293 296 298 298 298 295 290 288 286 284 283 280 286 286 281 286 287 288 290 290 286 291 296 296 296 296 297 298 298 297
Wind_Speed
16 17 17 18 18 18 19 18 17 15 13 13 13 9 9 7 1 5 8 2 4 4 1 2 5 5 5 3 4 2 5 7 5 4 2 4 9 3 5 7 5 9 7 5 15
14 16 17 17 18 18 17 17 17 16 14 13 13 10 7 7 9 13 6 9 8 8 6 8 5 7 6 4 4 7 5 5 2 3 4 6 10 8 6 11 14 13 11 6 18
14 15 16 17 18 18 18 17 16 16 15 13 12 10 8 6 7 3 7 6 7 8 4 4 5 8 8 4 6 4 6 2 6 7 5 8 9 8 10 15 14 16 16 15 19
13 15 16 17 18 18 18 18 17 17 16 14 12 10 8 5 7 4 5 4 5 6 6 5 6 5 6 8 6 6 12 8 1 3 4 8 6 8 18 19 2 9 11 20 20
13 15 16 17 18 19 19 19 18 16 15 16 12 8 5 7 8 7 6 6 7 5 8 8 10 8 9 5 5 11 11 6 8 5 9 5 13 12 18 19 18 7 5 15 18
11 13 16 17 18 20 21 21 20 17 16 15 11 4 7 11 5 5 5 7 6 8 5 6 5 4 9 7 8 7 9 11 7 11 9 9 13 3 12 14 19 16 15 16 19
9 11 13 16 17 19 21 22 21 19 18 13 7 5 8 13 2 3 6 2 2 4 7 3 2 5 2 6 2 5 9 12 14 12 7 7 12 19 21 6 11 15 16 17 19
11 10 14 16 16 18 21 23 22 20 12 6 5 5 9 2 3 4 6 4 3 3 1 3 3 2 4 1 5 7 6 11 1 10 5 8 18 11 8 9 13 16 16 17 20
12 12 12 13 15 19 20 24 21 9 2 4 5 7 7 4 5 6 5 4 6 4 3 3 3 4 4 7 11 11 13 16 12 14 4 13 15 4 4 7 14 16 17 17 19
11 12 12 14 16 19 23 22 3 5 4 4 3 5 7 2 4 4 4 7 3 7 4 6 6 9 9 12 14 16 17 15 16 10 13 14 21 23 17 16 20 21 21 20 20
10 11 12 14 18 20 14 4 6 6 6 8 2 5 2 3 2 5 4 8 5 7 11 9 10 17 19 20 22 22 21 22 25 6 11 19 22 25 23 20 23 22 22 21 20
10 9 10 14 17 22 11 5 3 3 10 12 14 10 6 3 5 9 8 11 9 15 15 7 18 21 18 13 16 20 22 26 23 6 7 17 22 22 22 25 24 23 21 20 16
11 10 9 12 16 12 8 1 1 2 8 8 8 7 4 11 10 11 15 8 11 15 18 23 17 2 5 14 15 20 21 22 21 7 13 13 17 17 14 18 19 19 23 18 17
11 10 9 11 7 8 4 5 3 2 9 11 9 4 5 4 7 2 10 7 9 13 18 19 19 20 19 20 18 20 16 19 19 11 12 3 16 12 15 17 14 18 22 16 12
11 10 5 4 8 4 5 6 7 5 14 5 6 3 4 8 5 4 1 5 17 11 7 12 8 7 14 23 11 12 3 4 9 13 17 13 17 14 7 10 13 17 22 16 5
12 10 2 3 3 3 2 3 4 9 17 7 8 8 6 7 3 4 4 4 4 9 13 19 3 5 5 3 3 5 3 5 5 7 13 16 20 6 8 5 5 11 17 4 5
15 12 9 4 2 3 2 4 6 16 4 7 7 9 10 11 9 11 9 12 10 7 12 12 23 6 5 7 4 8 6 6 9 9 19 14 15 14 9 13 14 22 21 4 8
16 13 11 9 7 6 3 6 17 9 26 3 1 5 10 12 8 11 9 10 18 15 6 8 10 19 15 19 6 14 11 7 14 15 25 2 15 11 13 15 14 16 9 3 8
14 4 3 7 8 7 6 15 21 19 18 9 3 11 12 10 6 12 15 13 11 21 14 9 13 4 5 2 6 9 8 3 9 1 10 12 20 15 7 11 17 7 5 9 12
3 4 7 12 10 4 5 25 22 14 8 10 21 17 23 21 13 13 14 8 13 18 20 8 14 9 6 4 3 6 2 6 5 7 17 28 23 15 15 18 11 8 9 12 8
5 4 3 15 9 5 6 15 17 21 22 12 20 23 21 22 21 21 15 11 11 8 16 9 9 5 6 12 15 6 8 6 4 8 11 21 12 7 8 5 9 8 7 7 3
4 6 8 12 7 3 10 14 9 21 4 14 13 18 23 22 24 23 25 21 10 7 9 8 3 12 23 4 4 8 21 19 11 14 9 14 34 7 1 3 4 6 6 6 7
4 4 6 8 10 9 9 20 14 15 12 6 11 12 16 17 16 17 21 16 9 11 9 8 3 5 12 8 4 8 13 12 17 15 28 16 31 14 18 14 3 6 9 9 11
5 5 3 5 5 20 21 23 22 21 25 17 12 11 14 18 19 12 19 16 16 11 1 9 8 13 21 22 5 12 19 17 19 18 24 28 27 40 30 27 26 20 22 17 18
4 6 7 7 13 14 20 15 28 22 20 16 9 24 20 13 19 21 30 30 17 6 4 3 17 21 28 34 34 27 18 15 26 27 23 31 23 29 31 30 29 21 26 25 25
5 5 3 8 15 25 22 18 26 28 25 20 24 24 27 26 25 23 23 18 17 3 13 8 12 19 24 30 30 30 26 33 30 26 30 28 33 29 38 36 32 33 30 23 25
3 2 2 3 5 10 19 28 29 27 29 28 29 23 25 29 33 31 25 17 9 11 14 8 8 11 20 25 24 22 39 33 35 40 33 31 39 40 37 31 29 32 23 22 20
Wind_Direction
18 13 12 9 6 3 359 357 355 353 353 348 348 339 324 309 275 195 239 116 126 118 245 156 213 206 218 211 238 249 250 264 271 264 358 143 210 179 357 238 202 195 264 72 146
14 10 5 5 1 357 354 350 345 342 342 344 341 335 321 312 257 250 142 138 146 163 196 207 217 194 221 232 217 241 254 279 326 266 246 186 227 192 222 219 228 231 218 160 157
7 4 360 357 354 350 347 343 337 333 333 334 336 329 315 293 266 252 120 144 161 183 243 241 260 208 245 242 201 198 252 7 244 247 250 241 223 212 223 247 225 232 222 184 183
0 356 352 349 345 344 341 338 333 329 326 325 328 321 316 240 274 105 118 135 173 203 199 192 203 212 239 223 201 257 246 248 267 219 235 235 262 228 226 236 353 251 245 176 198
350 348 346 342 338 336 334 332 327 323 318 316 317 315 274 234 252 129 139 140 155 176 222 223 233 249 249 234 214 245 273 249 248 224 238 257 242 249 256 242 253 211 217 196 206
340 340 339 336 332 331 329 326 323 318 312 309 300 285 239 254 102 133 148 154 204 206 206 227 286 300 293 264 236 356 287 264 251 241 232 233 256 243 256 244 241 230 223 224 215
327 330 330 331 325 327 323 320 319 315 310 303 264 234 240 251 95 140 161 183 181 234 220 200 231 240 6 258 261 280 278 268 241 235 241 213 249 235 251 219 236 234 229 229 224
317 321 323 324 321 322 318 314 314 309 302 289 205 222 259 97 145 177 170 136 144 136 212 157 200 228 240 48 234 255 248 266 327 181 190 203 268 246 250 188 232 240 232 233 228
314 315 318 321 323 319 315 310 306 295 254 162 205 240 257 133 195 170 203 199 144 125 91 140 216 254 191 236 259 208 264 266 244 190 170 210 267 272 132 231 258 255 251 237 235
301 307 316 321 322 319 316 298 270 264 209 210 254 239 184 210 131 158 147 180 174 152 166 206 219 238 219 226 244 271 266 264 262 192 214 231 252 271 266 262 260 262 264 261 243
287 299 311 319 319 318 329 312 226 207 206 232 179 268 194 89 169 187 163 167 175 213 218 198 222 229 237 228 251 276 283 278 273 265 213 241 253 264 278 274 273 270 272 258 254
274 290 309 313 317 316 289 276 28 13 291 237 251 256 227 188 229 195 175 189 193 219 215 203 232 249 271 288 274 264 263 268 276 273 210 267 267 268 272 267 266 274 272 266 266
276 283 302 310 321 304 306 313 133 247 252 216 223 241 212 185 233 210 185 199 212 230 223 240 250 79 253 251 250 248 252 261 264 271 218 274 269 256 246 252 260 266 262 265 260
264 276 296 318 282 355 290 347 304 269 265 218 195 184 154 183 245 122 212 217 207 243 235 254 262 266 265 255 256 262 269 252 266 273 265 155 284 272 286 266 238 265 275 269 247
247 260 269 345 314 296 9 332 309 265 274 117 151 91 151 206 86 161 155 202 230 198 187 224 223 217 232 245 255 249 340 260 254 256 278 261 268 269 221 264 249 246 261 276 296
234 234 192 203 251 289 325 318 269 247 248 182 147 169 172 199 173 114 186 254 323 242 234 257 96 235 246 104 229 111 254 239 229 260 251 250 240 278 231 204 237 256 262 198 144
227 212 179 199 323 75 312 214 240 233 23 193 203 184 195 191 198 190 172 187 195 188 221 222 225 195 177 202 170 203 212 268 244 224 261 269 262 266 278 252 238 256 265 119 161
224 205 209 221 183 145 207 218 232 219 229 56 3 197 206 177 222 196 195 221 224 241 279 238 241 197 189 218 250 197 215 219 273 269 284 234 263 252 248 238 238 253 261 244 186
236 226 205 196 201 177 197 214 234 225 247 252 196 242 219 217 238 194 214 218 217 198 210 217 246 130 186 154 194 156 204 302 275 174 280 263 258 253 167 198 229 228 218 233 220
222 201 205 167 151 185 207 238 256 235 296 264 226 209 243 227 192 195 210 214 234 201 228 246 266 174 139 166 210 235 99 176 213 274 265 278 281 269 262 232 221 231 236 258 217
249 231 201 151 126 184 206 231 265 263 267 267 257 259 249 250 239 229 237 242 201 206 213 243 221 211 146 202 204 182 220 223 297 240 258 280 269 71 109 147 176 214 227 249 213
226 239 146 145 176 184 199 208 222 267 293 266 267 266 268 265 258 253 245 243 190 158 195 213 280 234 239 287 335 270 231 216 218 223 232 252 274 68 210 252 146 154 199 210 211
249 237 210 173 220 208 233 232 227 235 229 254 261 269 290 285 291 276 274 267 259 189 190 169 217 244 265 238 163 226 226 246 242 252 244 237 258 171 252 263 215 214 220 227 234
272 228 208 237 215 210 215 227 230 228 240 223 218 250 258 254 249 265 262 266 251 226 349 160 199 232 240 245 244 214 227 224 229 236 247 242 261 276 267 275 276 278 274 277 264
246 248 183 193 238 223 217 219 229 234 216 202 227 215 218 236 244 238 245 256 253 100 37 246 244 240 245 261 262 269 268 218 225 236 242 260 251 260 277 271 275 283 283 285 286
290 293 318 297 214 218 222 223 228 233 231 229 228 223 222 227 215 246 229 243 232 152 231 199 249 248 256 253 259 260 259 254 255 246 247 251 265 257 261 274 276 275 280 287 283
6 3 335 252 284 265 232 235 234 234 241 239 241 237 238 227 230 241 249 259 224 201 206 196 215 224 240 240 248 251 240 247 255 258 252 252 251 259 266 257 265 275 282 275 279